Date,TemperatureHighF,TemperatureAvgF,TemperatureLowF,DewpointHighF,DewpointAvgF,DewpointLowF,HumidityHigh,HumidityAvg,HumidityLow,PressureMaxIn,PressureMinIn,WindSpeedMaxMPH,WindSpeedAvgMPH,GustSpeedMaxMPH,PrecipitationSumIn
2013-4-1,34.2,28.3,23.0,21.8,13.7,3.8,65,54,36,30.21,30.00,0,0,0,0.00
2013-4-2,37.0,29.6,23.0,23.9,3.0,-64.4,62,41,1,30.30,30.20,0,0,0,0.00
2013-4-3,43.9,33.9,23.5,27.4,17.2,-15.1,62,51,16,30.39,30.21,0,0,0,0.00
2013-4-4,54.1,41.4,32.0,38.7,25.6,8.3,62,54,31,30.20,30.00,0,0,0,0.00
2013-4-5,47.1,39.6,30.7,32.7,19.3,-28.5,61,47,6,30.19,29.91,0,0,0,0.00
2013-4-6,59.4,46.3,36.9,43.5,3.6,-52.7,62,37,1,29.91,29.49,0,0,0,0.00
2013-4-7,56.5,44.2,35.2,39.8,-18.9,-56.6,55,16,1,29.95,29.71,0,0,0,0.00
2013-4-8,61.5,51.8,43.9,15.7,-37.6,-51.4,25,3,1,29.89,29.64,0,0,0,0.00
2013-4-9,46.0,40.5,37.8,-49.9,-53.3,-55.2,1,1,1,29.98,29.77,0,0,0,0.00
2013-4-10,37.8,34.7,32.2,-55.1,-57.0,-58.6,1,1,1,30.06,29.70,0,0,0,0.00
2013-4-11,41.0,37.3,34.7,-53.0,-55.4,-57.0,1,1,1,29.76,29.51,0,0,0,0.00
2013-4-12,36.5,33.7,31.3,11.6,-33.6,-59.2,41,10,1,29.83,29.53,0,0,0,0.00
2013-4-13,42.8,35.2,30.6,30.7,9.5,-59.5,63,42,1,29.93,29.83,0,0,0,0.00
2013-4-14,59.2,42.1,32.4,16.8,-41.5,-58.5,47,7,1,29.90,29.44,0,0,0,0.00
2013-4-15,46.6,40.9,34.3,33.1,5.1,-56.0,63,38,1,30.01,29.60,0,0,0,0.00
2013-4-16,48.6,39.3,30.4,36.2,16.4,-59.7,65,47,1,30.23,29.99,0,0,0,0.00
2013-4-17,42.1,39.8,37.0,29.7,-21.1,-55.5,63,23,1,30.22,29.60,0,0,0,0.00
2013-4-18,41.4,37.5,32.2,-52.8,-55.2,-58.6,1,1,1,29.72,29.39,0,0,0,0.00
2013-4-19,36.3,32.7,30.9,19.3,-26.3,-59.4,50,17,1,29.96,29.48,0,0,0,0.00
2013-4-20,44.4,35.5,27.0,28.0,0.4,-61.9,65,39,1,30.28,29.96,0,0,0,0.00
2013-4-21,56.8,45.2,34.2,42.3,16.2,-57.3,63,42,1,30.29,30.07,0,0,0,0.00
2013-4-22,59.0,50.8,41.9,40.9,-24.5,-52.7,54,11,1,30.17,29.90,0,0,0,0.00
2013-4-23,41.5,35.9,32.7,28.3,-13.3,-57.8,63,27,1,30.06,29.95,0,0,0,0.00
2013-4-24,51.3,39.2,27.9,36.1,7.7,-61.2,63,36,1,30.07,29.93,0,0,0,0.00
2013-4-25,54.3,41.2,30.2,33.5,17.0,-56.3,65,46,1,30.22,30.01,0,0,0,0.00
2013-4-26,69.1,55.4,41.2,49.4,37.6,6.9,64,52,18,30.18,30.08,0,0,0,0.00
2013-4-27,65.5,54.5,42.1,48.7,5.3,-52.4,59,32,1,30.19,29.98,0,0,0,0.00
2013-4-28,72.7,58.7,41.9,50.1,22.4,-52.5,57,37,1,29.98,29.75,0,0,0,0.00
2013-4-29,72.5,61.2,52.5,53.7,-2.1,-45.9,52,18,1,29.81,29.59,0,0,0,0.00
2013-4-30,80.8,69.0,55.6,59.1,19.0,-40.8,57,31,1,29.92,29.56,0,0,0,0.00